www.pogodaiklimat.ru

Погода и климат >> Архив погоды >> Норвегия >> Квитсёй


ПОГОДА в Квитсёй

  • Прогноз погоды в Квитсёй
  • Монитор погоды в Квитсёй

АРХИВ ПОГОДЫ в Квитсёй

Время (UTC), дата Ветер
(напр.,м/с)
 
Видим.   Явления Облачность Т
(С)
Тd
(С)
f
(%)
Тe
(С)
Тes
(С)
Комфортность P
(гПа)
Po
(гПа)
Тmin
(С)
Tmax
(С)
R
(мм)
R24
(мм)
S
(см)
19 16.07 СЗ 8-10
{11}
н/о н/о +12.7 +9.9 83 +10 +10 1014.3 1011.6
20 16.07 СЗ 7-10
{10}
н/о н/о +12.2 +9.9 86 +9 +9 1014.4 1011.7
21 16.07 СЗ 7-9
{9}
н/о н/о +12.0 +9.9 87 +9 +9 1014.3 1011.6
22 16.07 СЗ 6-9
{9}
н/о н/о +11.7 +9.8 88 +9 +9 1014.5 1011.8
23 16.07 СЗ 5-7
{7}
н/о н/о +11.8 +9.9 88 +9 +9 1014.7 1011.9
00 17.07 СЗ 5-6
{11}
н/о н/о +11.6 +10.0 90 +9 +9 1014.6 1011.9
01 17.07 СЗ 5-6
{7}
н/о н/о +11.5 +10.1 91 +9 +9 1014.5 1011.8
02 17.07 СЗ 5-6
{6}
н/о н/о +11.4 +10.0 91 +9 +9 1014.3 1011.6
03 17.07 СЗ 4-5
{6}
н/о н/о +11.5 +10.1 91 +9 +9 1014.1 1011.4
04 17.07 СЗ 3-5
{5}
н/о н/о +11.4 +10.2 92 +9 +9 1013.9 1011.2
05 17.07 СЗ 2-3
{4}
н/о н/о +11.7 +10.5 92 +10 +10 1013.7 1011.0
06 17.07 СЗ 3-3
{7}
н/о н/о +12.0 +10.6 91 +10 +10 1013.8 1011.1 +11.3 +13.4
07 17.07 СЗ 2-3
{4}
н/о н/о +12.0 +10.6 91 +11 +11 1013.7 1010.9
08 17.07 З 2-4
{4}
н/о н/о +12.5 +11.1 91 +12 +12 1013.5 1010.8
09 17.07 СЗ 2-3
{3}
н/о н/о +13.6 +11.0 84 +13 +13 1013.4 1010.7
10 17.07 З 3-4
{5}
н/о н/о +13.7 +10.9 83 +13 +13 1013.3 1010.7
11 17.07 З 3-4
{5}
н/о н/о +13.7 +10.3 80 +13 +13 1013.2 1010.5
12 17.07 З 5-6
{6}
н/о н/о +14.1 +11.3 83 +12 +12 1013.2 1010.5
13 17.07 ЮЗ 4-6
{6}
н/о н/о +14.5 +10.7 78 +13 +13 1013.0 1010.4
14 17.07 ЮЗ 4-6
{6}
н/о н/о +15.1 +11.5 79 +14 +14 1012.9 1010.2
15 17.07 Ю 4-6
{6}
н/о н/о +15.5 +11.1 75 +15 +15 1012.7 1010.0
16 17.07 Ю 5-7
{7}
н/о н/о +15.1 +11.7 80 +14 +14 1012.5 1009.8
17 17.07 Ю 6-7
{7}
н/о н/о +13.7 +10.9 83 +12 +12 1012.1 1009.5
18 17.07 Ю 6-7
{7}
н/о н/о +12.9 +11.3 90 +10 +10 1011.9 1009.2 +11.9 +16.2
19 17.07 Ю 6-9
{9}
н/о н/о +12.4 +11.5 94 +10 +10 1011.7 1009.0
20 17.07 Ю 7-8
{9}
н/о н/о +12.3 +11.5 95 +9 +9 1011.6 1008.9
21 17.07 Ю 6-9
{9}
н/о н/о +12.2 +11.3 94 +9 +9 1011.2 1008.5
22 17.07 ЮВ 6-8
{9}
н/о н/о +12.2 +11.4 95 +9 +9 1011.0 1008.3
23 17.07 ЮВ 7-9
{10}
н/о н/о +12.4 +11.5 94 +9 +9 1010.8 1008.1
00 18.07 Ю 6-9
{10}
н/о н/о +12.8 +11.5 92 +10 +10 1010.6 1007.9
01 18.07 Ю 4-5
{7}
н/о н/о +12.8 +11.5 92 +11 +11 1010.2 1007.5
02 18.07 ЮВ 5-7
{7}
н/о н/о +12.9 +11.8 93 +11 +11 1009.4 1006.8
03 18.07 ЮВ 5-7
{8}
н/о н/о +13.7 +12.1 90 +12 +12 1008.9 1006.2
04 18.07 ЮВ 5-7
{8}
н/о н/о +14.1 +12.0 87 +12 +12 1008.5 1005.9
05 18.07 ЮВ 6-8
{8}
н/о н/о +14.5 +12.0 85 +13 +13 1008.1 1005.4
06 18.07 ЮВ 5
{8}
н/о н/о +14.4 +11.7 84 +13 +13 1007.9 1005.2 +12.2
07 18.07 ЮВ 8-11
{12}
н/о н/о +14.6 +11.6 82 +12 +12 1007.8 1005.2
08 18.07 Ю 9-12
{12}
н/о н/о +14.1 +12.0 87 +11 +11 1007.8 1005.2
09 18.07 ЮВ 8-11
{13}
н/о н/о +14.2 +12.2 88 +12 +12 1007.8 1005.1
10 18.07 ЮВ 7-11
{11}
н/о н/о +14.4 +12.6 89 +12 +12 1007.7 1005.0
11 18.07 Ю 7-9
{11}
н/о н/о +14.5 +12.5 88 +12 +12 1007.8 1005.1
12 18.07 ЮВ 8-12
{13}
н/о н/о +15.0 +12.5 85 +13 +13 1007.5 1004.8
13 18.07 ЮВ 7-10
{11}
н/о н/о +15.3 +12.4 83 +13 +13 1007.2 1004.6
14 18.07 Ю 8-11
{12}
н/о н/о +15.1 +12.4 84 +13 +13 1007.1 1004.4
15 18.07 ЮВ 9-13
{15}
н/о н/о +15.1 +12.6 85 +13 +13 1007.0 1004.3
16 18.07 ЮВ 7-12
{14}
н/о н/о +15.1 +12.2 83 +13 +13 1006.9 1004.2
17 18.07 ЮВ 7-10
{12}
н/о н/о +14.8 +13.0 89 +13 +13 1006.6 1003.9
18 18.07 ЮВ 7-10
{15}
н/о н/о +14.3 +12.7 90 +12 +12 1006.3 1003.7 +14.0 +15.6
19 18.07 ЮВ 10-16
{16}
н/о н/о +14.6 +12.3 86 +12 +12 1006.1 1003.4
20 18.07 ЮВ 7-13
{15}
н/о н/о +13.9 +12.3 90 +12 +12 1006.1 1003.4
21 18.07 Ю 8-11
{13}
н/о н/о +14.1 +12.3 89 +12 +12 1006.2 1003.5
22 18.07 Ю 5-10
{13}
н/о н/о +12.4 +11.6 95 +10 +10 1007.4 1004.7
23 18.07 Ю 4-6
{7}
н/о н/о +12.4 +11.8 96 +10 +10 1007.6 1004.9
00 19.07 Ю 4-4
{16}
н/о н/о +12.3 +11.7 96 +10 +10 1007.8 1005.1
01 19.07 Ю 4-6
{7}
н/о н/о +11.9 +11.3 96 +10 +10 1007.9 1005.3
02 19.07 Ю 4-6
{6}
н/о н/о +12.1 +11.6 97 +10 +10 1008.3 1005.6
03 19.07 Ю 5-6
{7}
н/о н/о +12.0 +11.5 97 +9 +9 1008.3 1005.6
04 19.07 ЮВ 4-7
{7}
н/о н/о +11.8 +11.3 97 +9 +9 1008.6 1005.9
05 19.07 Ю 5-8
{8}
н/о н/о +11.9 +11.3 96 +9 +9 1008.8 1006.1
06 19.07 ЮВ 4-6
{8}
н/о н/о +12.4 +11.5 94 +10 +10 1009.1 1006.4 +11.7 +14.6
07 19.07 ЮВ 4-5
{5}
н/о н/о +13.5 +11.9 90 +12 +12 1009.3 1006.7
08 19.07 Ю 5-8
{8}
н/о н/о +14.7 +12.4 86 +13 +13 1009.5 1006.8
09 19.07 Ю 6-8
{9}
н/о н/о +14.7 +12.9 89 +13 +13 1009.7 1007.1
10 19.07 Ю 9-11
{11}
н/о н/о +15.9 +12.8 82 +14 +14 1009.8 1007.2
11 19.07 Ю 8-10
{11}
н/о н/о +16.1 +13.2 83 +14 +14 1010.0 1007.4
12 19.07 Ю 9-11
{12}
н/о н/о +16.4 +13.9 85 +15 +15 1010.4 1007.8
13 19.07 Ю 8-11
{11}
н/о н/о +16.3 +13.8 85 +15 +15 1010.8 1008.1
14 19.07 Ю 7-10
{10}
н/о н/о +16.2 +13.3 83 +15 +15 1011.1 1008.4
15 19.07 Ю 7-9
{10}
н/о н/о +16.2 +13.3 83 +15 +15 1010.9 1008.3
17 19.07 Ю 6-8
{9}
н/о н/о +15.6 +13.3 86 +14 +14 1010.9 1008.2
18 19.07 Ю 5-7
{11}
н/о н/о +15.5 +13.3 87 +14 +14 1010.8 1008.1 +12.3 +17.1
19 19.07 Ю 6-7
{7}
н/о н/о +14.7 +12.9 89 +13 +13 1010.9 1008.2
20 19.07 Ю 5-7
{8}
н/о н/о +14.1 +12.7 91 +12 +12 1011.1 1008.4
21 19.07 Ю 5-6
{6}
н/о н/о +13.7 +12.4 92 +12 +12 1011.1 1008.5
22 19.07 Ю 4-6
{7}
н/о н/о +13.7 +12.3 91 +12 +12 1011.3 1008.6
23 19.07 ЮВ 3-5
{6}
н/о н/о +13.4 +12.0 91 +12 +12 1011.0 1008.4
00 20.07 В 2-4
{8}
н/о н/о +13.1 +12.0 93 +12 +12 1010.8 1008.1
01 20.07 В 3-4
{4}
н/о н/о +12.8 +11.7 93 +11 +11 1010.4 1007.7
02 20.07 В 3-4
{4}
н/о н/о +13.1 +12.2 94 +12 +12 1010.0 1007.4
03 20.07 В 3-5
{5}
н/о н/о +13.4 +12.0 91 +12 +12 1009.5 1006.8
04 20.07 В 3-4
{5}
н/о н/о +13.6 +11.8 89 +12 +12 1009.2 1006.5
05 20.07 В 3-5
{5}
н/о н/о +14.1 +11.4 84 +13 +13 1008.9 1006.2
06 20.07 ЮВ 5-7
{7}
н/о н/о +15.2 +11.0 76 +14 +14 1008.5 1005.8 +12.7 +15.4
07 20.07 ЮВ 4-6
{6}
н/о н/о +15.2 +11.2 77 +14 +14 1008.3 1005.6
08 20.07 ЮВ 6-8
{8}
н/о н/о +14.5 +12.2 86 +13 +13 1007.9 1005.2
09 20.07 ЮВ 5-7
{9}
н/о н/о +14.4 +12.8 90 +13 +13 1007.3 1004.6
10 20.07 ЮВ 3-5
{5}
н/о н/о +14.5 +12.7 89 +14 +14 1006.7 1004.1
11 20.07 ЮВ 7-9
{11}
н/о н/о +15.2 +12.3 83 +13 +13 1006.3 1003.7
12 20.07 ЮВ 7-10
{12}
н/о н/о +15.0 +12.7 86 +13 +13 1006.2 1003.5
13 20.07 ЮВ 6-9
{11}
н/о н/о +15.2 +13.1 87 +14 +14 1006.1 1003.4
14 20.07 ЮВ 6-9
{10}
н/о н/о +15.1 +13.1 88 +13 +13 1006.0 1003.3
15 20.07 ЮВ 6-9
{10}
н/о н/о +15.5 +13.4 87 +14 +14 1005.9 1003.3
16 20.07 ЮВ 5-8
{9}
н/о н/о +15.2 +13.7 91 +14 +14 1005.8 1003.1
17 20.07 ЮВ 5-8
{9}
н/о н/о +15.2 +14.2 94 +14 +14 1005.7 1003.1
18 20.07 Ю 4-6
{11}
н/о н/о +15.3 +14.7 96 +14 +14 1005.8 1003.1 +14.2 +15.6
19 20.07 Ю 6-8
{8}
н/о н/о +15.2 +14.4 95 +14 +14 1006.0 1003.3
20 20.07 Ю 6-7
{9}
н/о н/о +15.1 +14.5 96 +13 +13 1006.4 1003.7
21 20.07 Ю 5-6
{7}
н/о н/о +15.0 +14.4 96 +13 +13 1006.5 1003.8
22 20.07 Ю 5-6
{8}
н/о н/о +15.0 +14.4 96 +13 +13 1006.7 1004.0
23 20.07 Ю 5-6
{8}
н/о н/о +14.7 +14.2 97 +13 +13 1006.7 1004.0
00 21.07 Ю 5-7
{9}
н/о н/о +14.7 +14.2 97 +13 +13 1006.9 1004.2
01 21.07 Ю 5-6
{8}
н/о н/о +14.8 +14.3 97 +13 +13 1006.7 1004.0
02 21.07 Ю 3-5
{5}
н/о н/о +14.9 +14.4 97 +14 +14 1006.6 1004.0
03 21.07 Ю 2-3
{5}
н/о н/о +14.9 +14.4 97 +15 +15 1006.7 1004.1
04 21.07 Ю 3-4
{4}
н/о н/о +15.0 +14.5 97 +14 +14 1006.9 1004.3
05 21.07 ЮЗ 3-4
{4}
н/о н/о +14.6 +14.1 97 +14 +14 1007.2 1004.5
06 21.07 ЮЗ 4-5
{8}
н/о н/о +13.9 +13.4 97 +12 +12 1007.5 1004.9 +13.9 +15.3
07 21.07 З 4-6
{6}
н/о н/о +13.9 +13.4 97 +12 +12 1008.0 1005.3
08 21.07 З 7-9
{9}
н/о н/о +13.7 +13.2 97 +11 +11 1008.7 1006.0
09 21.07 З 7-9
{10}
н/о н/о +13.6 +13.1 97 +11 +11 1009.6 1007.0
10 21.07 СЗ 8-10
{11}
н/о н/о +13.4 +12.6 95 +11 +11 1010.6 1008.0
11 21.07 З 7-10
{10}
н/о н/о +13.7 +12.4 92 +11 +11 1011.8 1009.2
12 21.07 З 7-9
{11}
н/о н/о +13.7 +11.9 89 +11 +11 1013.0 1010.3
13 21.07 З 6-8
{10}
н/о н/о +14.3 +11.6 84 +12 +12 1014.1 1011.5
14 21.07 СЗ 6-8
{9}
н/о н/о +14.5 +11.3 81 +13 +13 1014.8 1012.1
15 21.07 З 4-6
{7}
н/о н/о +14.2 +11.0 81 +13 +13 1015.4 1012.7
16 21.07 З 2-5
{6}
н/о н/о +15.4 +11.4 77 +15 +15 1015.8 1013.1
17 21.07 ЮЗ 2-3
{3}
н/о н/о +14.8 +10.8 77 +15 +15 1016.1 1013.4
18 21.07 Ю 2-3
{10}
н/о н/о +14.6 +11.0 79 +14 +14 1016.3 1013.6 +13.3 +15.6
19 21.07 Ю 3-4
{4}
н/о н/о +14.1 +11.1 82 +13 +13 1016.5 1013.8
20 21.07 Ю 4-5
{5}
н/о н/о +14.0 +11.0 82 +13 +13 1016.6 1013.9
21 21.07 Ю 3-5
{5}
н/о н/о +13.2 +11.1 87 +12 +12 1016.3 1013.6
22 21.07 Ю 4-5
{5}
н/о н/о +13.4 +11.6 89 +12 +12 1016.6 1013.9
23 21.07 Ю 6-7
{8}
н/о н/о +14.0 +12.2 89 +12 +12 1016.7 1014.0
00 22.07 ЮВ 5-7
{8}
н/о н/о +13.6 +11.8 89 +12 +12 1016.1 1013.4
01 22.07 ЮВ 5-8
{8}
н/о н/о +13.5 +11.6 88 +11 +11 1015.7 1013.0
02 22.07 ЮВ 5-7
{8}
н/о н/о +13.7 +11.8 88 +12 +12 1015.0 1012.3
03 22.07 ЮВ 5-8
{8}
н/о н/о +14.0 +12.4 90 +12 +12 1014.6 1011.9
04 22.07 ЮВ 5-8
{8}
н/о н/о +14.0 +12.9 93 +12 +12 1014.0 1011.3
05 22.07 ЮВ 5-8
{9}
н/о н/о +14.1 +13.0 93 +12 +12 1013.5 1010.8
06 22.07 ЮВ 5-9
{9}
н/о н/о +14.3 +13.5 95 +13 +13 1013.0 1010.3 +13.2 +14.6
07 22.07 ЮВ 6-10
{10}
н/о н/о +14.7 +13.9 95 +13 +13 1012.6 1009.9
08 22.07 ЮВ 6-9
{11}
н/о н/о +15.0 +14.0 94 +13 +13 1012.3 1009.6
09 22.07 ЮВ 7-11
{11}
н/о н/о +15.4 +14.1 92 +14 +14 1011.6 1008.9
10 22.07 ЮВ 8-12
{12}
н/о н/о +15.6 +14.0 90 +14 +14 1011.1 1008.4
11 22.07 ЮВ 7-11
{11}
н/о н/о +15.9 +14.3 90 +14 +14 1010.7 1008.0
12 22.07 ЮВ 7-10
{13}
н/о н/о +16.0 +14.0 88 +14 +14 1009.9 1007.2
13 22.07 Ю 8-12
{14}
н/о н/о +16.3 +14.5 89 +15 +15 1009.2 1006.6
14 22.07 Ю 9-13
{15}
н/о н/о +16.1 +15.0 93 +14 +14 1009.4 1006.7
15 22.07 Ю 9-13
{13}
н/о н/о +15.8 +15.2 96 +14 +14 1009.6 1007.0
16 22.07 Ю 8-12
{13}
н/о н/о +15.7 +15.1 96 +14 +14 1010.0 1007.4
17 22.07 Ю 7-10
{11}
н/о н/о +15.4 +14.8 96 +14 +14 1011.0 1008.4
18 22.07 Ю 6-10
{15}
н/о н/о +15.2 +14.6 96 +14 +14 1011.5 1008.8 +14.3 +16.4
19 22.07 Ю 5-7
{8}
н/о н/о +15.1 +14.6 97 +14 +14 1011.8 1009.1
20 22.07 Ю 5-6
{7}
н/о н/о +15.2 +14.7 97 +14 +14 1012.6 1010.0
21 22.07 Ю 4-5
{6}
н/о н/о +15.1 +14.5 96 +14 +14 1013.2 1010.5
22 22.07 Ю 5-6
{7}
н/о н/о +15.2 +14.6 96 +14 +14 1013.7 1011.0
23 22.07 Ю 4-5
{6}
н/о н/о +15.1 +14.6 97 +14 +14 1014.2 1011.5
00 23.07 Ю 4-4
{8}
н/о н/о +15.2 +14.7 97 +14 +14 1014.8 1012.1
01 23.07 Ю 4-5
{5}
н/о н/о +15.1 +14.6 97 +14 +14 1015.0 1012.3
02 23.07 Ю 4-5
{6}
н/о н/о +15.1 +14.6 97 +14 +14 1015.0 1012.3
03 23.07 Ю 4-5
{6}
н/о н/о +15.2 +14.7 97 +14 +14 1015.4 1012.7
04 23.07 Ю 5-6
{7}
н/о н/о +15.3 +14.8 97 +14 +14 1015.6 1012.9
05 23.07 Ю 5-7
{7}
н/о н/о +15.4 +14.9 97 +14 +14 1015.9 1013.2
06 23.07 Ю 4-6
{7}
н/о н/о +15.6 +15.1 97 +15 +15 1016.4 1013.7 +15.0 +15.6
07 23.07 Ю 6-7
{8}
н/о н/о +15.8 +15.3 97 +14 +14 1016.7 1014.0
08 23.07 Ю 7-10
{10}
н/о н/о +16.1 +15.6 97 +15 +15 1016.9 1014.2
09 23.07 Ю 7-9
{10}
н/о н/о +16.0 +15.2 95 +14 +14 1017.6 1014.9
10 23.07 Ю 6-8
{9}
н/о н/о +17.5 +15.8 90 +17 +17 1017.8 1015.1
11 23.07 Ю 6-8
{8}
н/о н/о +18.0 +16.5 91 +17 +17 1017.8 1015.2
12 23.07 Ю 6-8
{10}
н/о н/о +18.2 +16.2 88 +18 +18 1018.0 1015.4
13 23.07 Ю 7-9
{9}
н/о н/о +17.6 +15.6 88 +17 +17 1018.3 1015.6
14 23.07 Ю 6-7
{8}
н/о н/о +18.3 +15.9 86 +18 +18 1018.6 1016.0
15 23.07 Ю 6-7
{7}
н/о н/о +17.8 +15.4 86 +17 +17 1018.9 1016.2
17 23.07 Ю 4-6
{6}
н/о н/о +17.5 +15.5 88 +17 +17 1018.9 1016.3
18 23.07 Ю 5-6
{9}
н/о н/о +17.0 +15.3 90 +16 +16 1018.9 1016.2 +15.6 +18.8
19 23.07 Ю 5-6
{7}
н/о н/о +16.5 +15.4 93 +16 +16 1018.4 1015.8

 

Местоположение метеостанции Квитсёй (Норвегия): широта 59.07 долгота 5.42 высота над уровнем моря 21 м.

В архиве по умолчанию представлена погода в Квитсёй за последнюю неделю. Архивные данные за месяц целиком и за предыдущие месяцы, начиная с января 2011 года, Вы можете получить, выбрав интересующий диапазон дат из раскрывающегося списка и нажав кнопку "Ввод!".


*Определитесь, кто Вы:
робот инопланетянин человек

Внимание! Время в таблицах - всемирное. Для получения местного времени необходимо прибавить поправку, которая равна 1 ч.

Смотрите также архив погоды в соседних городах и на ближайших метеорологических станциях:

Погода в Ставангере (Норвегия) (22 км)
Погода в Ставангер аэропорту (Норвегия) (25 км)
Погода в Аэропорту Haugesund (Норвегия) (34 км)
Погода в Фистере (Норвегия) (37 км)
Погода в Сархейме (Норвегия) (37 км)
Погода на Лярватне (Норвегия) (40 км)
Погода на Маяке Utsira (Норвегия) (41 км)
Погода в Роваере (Норвегия) (45 км)
Погода на Маяке Obrestad (Норвегия) (47 км)
Погода в Недре Ватс (Норвегия) (50 км)

Пояснения к столбцам:

Ветер - указаны скорость ветра в м/с - средняя за 10 мин, порывы в срок и между сроками (в фигурных скобках) и направление, откуда дует ветер: С - северный, СВ - северо-восточный, В - восточный, ЮВ - юго-восточный, Ю - южный, ЮЗ - юго-западный, З - западный, СЗ - северо-западный.
Видимость - горизонтальная дальность видимости в метрах или километрах. При видимости от 1 до 10 км при отсутствии осадков обычно наблюдается дымка, при ухудшении видимости до 1 км и менее - туман. В сухую погоду видимость может ухудшаться дымом, пылью или мглою.
Явления - указаны атмосферные явления, наблюдавшиеся в срок или в последний час перед сроком; фигурными скобками обозначены явления, наблюдавшиеся между сроками (за 1-3 часа до срока); квадратными скобками обозначены град или гололедные отложения с указанием их диаметра в мм.
Облачность - указаны через наклонную черту общая и нижняя облачность в баллах и высота нижней границы облаков в метрах; квадратными скобками обозначены формы облаков: Ci - перистые, Cs - перисто-слоистые, Cc - перисто-кучевые, Ac - высококучевые, As - высокослоистые, Sc - слоисто-кучевые, Ns - слоисто-дождевые, Cu - кучевые, Cb - кучево-дождевые. Подробнее классификацию облаков см. в Атласе облаков (PDF).
T - Температура воздуха - температура, измеренная на высоте 2 м над землей.
Td - Температура точки росы - температура, при понижении до которой содержащийся в воздухе водяной пар достигнет насыщения.
f - Относительная влажность воздуха - влажноcть воздуха, измеренная на высоте 2 м над землей.
Te - Эффективная температура - температура, которую ощущает одетый по сезону человек в тени. Характеристика душности погоды. При расчете учитывается влияние влажности воздуха и скорости ветра на теплоощущения человека.
Tes - Эффективная температура на солнце - температура, которую ощущает человек, с поправкой на солнечный нагрев. Характеристика знойности погоды. Зависит от высоты солнца над горизонтом, облачности и скорости ветра. Ночью, в пасмурную погоду, а также при ветре 12 м/с и более поправка равна нулю.
P - Атмосферное давление - приведенное к уровню моря атмосферное давление.
Po - Атмосферное давление - измеренное на уровне метеостанции атмосферное давление.
Tmin - Минимальная температура - минимум температуры воздуха на высоте 2 м над землей.
Tmax - Максимальная температура - максимум температуры воздуха на высоте 2 м над землей.
R - Количество осадков - Количество выпавших осадков за период времени, мм. При наведении курсора мыши на число - период времени, за который выпало указанное количество осадков.
R24 - Количество осадков - Количество выпавших осадков за 24 часа, мм.
S - Снежный покров - Высота снежного покрова, см. При наведении курсора мыши на число - состояние снежного покрова и степень покрытия местности в баллах.